Terminal Aerodrome Forecast
Issued by NWS

Home | Current Version | Previous Version | Text Only | Print | Product List | Glossary On
Versions: 1 2 3 4 5 6 7 8 9 10 11 12 13 14 15 16 17 18 19 20 21 22 23 24 25 26 27 28 29
000
FTUS45 KBOI 201740
TAFBKE
TAF
KBKE 201740Z 2018/2118 10010KT P6SM VCSH OVC050
     FM202100 11010KT P6SM -SHRA OVC030
     FM210900 VRB05KT P6SM VCSH OVC050=

USA.gov is the U.S. government's official web portal to all federal, state and local government web resources and services.